星链-5912 (STARLINK-5912 )

导读

STARLINK-5912是美国太空探索技术公司(SpaceX)星链互联网卫星星座的一员,于2023年3月24日发射入轨。星链项目旨在构建全球卫星互联网覆盖网络,该卫星加入星座后,进一步扩充了星链的卫星规模,助力提升星座网络容量与覆盖能力,为全球各地用户提供低延迟宽带互联网服务。

基本信息
目录编号:
56020
目录名称:
STARLINK-5912
国际标识:
2023-042AL
轨道中心:
EARTH
卫星名称:
星链-5912
卫星全名:
星链-5912 (STARLINK-5912 )
卫星状态:
在轨 (已飞行1268 天)
发射日期:
2023-03-24 UTC
国别 :
美国 (US)
星等 :
--
该卫星已列入 空间交会检测服务 Space Conjunction Data Service (SCDS) ,当前飞行风险评估等级: 高风险
轨道信息
数据来源 国际轨道数据
星历时间: 2026-09-12T12:13:14+0800
12小时前
查看轨道信息
半长轴: 6861.19km
偏心率: 0.0001453
轨道倾角: 43.002°
近地点辐角 254.229°
升交点赤经 72.266°
平近点角 105.840°
近地点: 482.056km
远地点: 484.05km
周期: 94.267分钟
每日圈数: 15.275787
详细信息
固有亮度:
5
最大亮度:
2.5
卫星平台:
Starlink v1.5
覆盖范围:
全球
运营商:
太空探索技术公司
运营商所在国:
美国
制造商(研发单位):
太空探索技术公司
制造商所在国:
美国
使用方式:
暂无
卫星简介
星链(Starlink)计划是由太空探索技术公司(SpaceX)提出的一个巨型低轨卫星互联网星座项目,计划在2019年至2024年间在太空搭建由约1.2万颗卫星组成的“星链”网络,其中1584颗将部署在地球上空550千米处的近地轨道,并从2020年开始工作。该卫星仍在工作。
2D轨道图
3D轨道图
轨道高度分析图
轨道倾角分析图
轨道综合分析图
查看轨道综合分析图
交会数据列表
事件ID 空间交会对象 最接近时刻(TCA) 交会距离 交会风险概率(CRP) 交会风险指数(CRI) 操作
CDM_260914-122905-602006-299421
2026-09-14T
12:29:49+0000
0.207 km
中距离
6.259887E-4 高风险 0.91
CDM_260915-001505-602006-299421
2026-09-15T
00:15:58+0000
0.843 km
远距离
3.095741E-5 中风险 0.65
CDM_260914-222705-602006-364221
2026-09-14T
22:27:25+0000
0.754 km
远距离
2.613869E-5 中风险 0.63
CDM_260915-035605-602006-364221
2026-09-15T
03:56:57+0000
1.230 km
极远距离
4.964073E-6 低风险 0.49
CDM_260915-015005-602006-299421
2026-09-15T
01:50:07+0000
1.826 km
极远距离
2.440218E-6 低风险 0.43
CDM_260914-105505-602006-299421
2026-09-14T
10:55:40+0000
1.925 km
极远距离
2.119063E-6 低风险 0.42
CDM_260915-043205-602006-644221
2026-09-15T
04:32:48+0000
2.217 km
极远距离
1.701159E-6 低风险 0.4
CDM_260914-140305-602006-299421
2026-09-14T
14:03:58+0000
2.219 km
极远距离
1.519219E-6 低风险 0.39
CDM_260914-193903-825705-602022
2026-09-14T
19:39:08+0000
2.984 km
极远距离
9.139244E-7 极低风险 0.34
CDM_260914-205305-602006-364221
2026-09-14T
20:53:16+0000
2.507 km
极远距离
7.757804E-7 极低风险 0.33
与全量物体交会距离演化趋势
与全量物体交会风险概率演化趋势